Location: Casilda
(33.0440°S, 61.1680°W)
Time: 00:55:48
(UTC-03:00)

ISS - Pass Details

Date: 28 March 2020
Orbit: 417 x 423 km, 51.6° (Epoch: 29 March)

Event Time Altitude Azimuth Distance (km) Brightness Sun altitude
Exits shadow 05:45:22 18° 197° (SSW) 1,129 -1.7 -19.4°
Drops below altitude 10° 05:47:14 10° 166° (SSE) 1,536 -0.6 -19.0°
Sets 05:49:47 0° 147° (SSE) 2,408 0.7 -18.5°
